Weather History for LIRA - January, 2014

Change the Weather History Date:

Friday, January 17, 2014

  Actual Average Record
Temperature  
Mean Temperature 52 °F -  
Max Temperature 56 °F 54 °F 60 °F (2015)
Min Temperature 48 °F 38 °F 28 °F (2002)
Degree Days  
Heating Degree Days 13    
Growing Degree Days 2 (Base 50)    
Moisture  
Dew Point 50 °F    
Average Humidity 86    
Maximum Humidity 94    
Minimum Humidity 75    
Precipitation  
Precipitation 0.01 in 0.13 in - ()
Sea Level Pressure  
Sea Level Pressure 29.94 in    
Wind  
Wind Speed 15 mph ()    
Max Wind Speed 22 mph    
Max Gust Speed 31 mph    
Visibility 5.5 miles    
Events Rain    
Averages and records for this station are not official NWS values.
T = Trace of Precipitation, MM = Missing Value Source: Averaged Metar Reports

Daily Weather History Graph

Daily Weather History Graph

Search for Another Location

Airport or City:

Trip Planner

Search our weather history database for the weather conditions in past years. The results will help you decide how hot, cold, wet, or windy it might be!

Date:

Astronomy

Jan. 17, 2014 Rise Set
Actual Time 7:33 AM CET 5:06 PM CET
Civil Twilight 7:03 AM CET 5:36 PM CET
Nautical Twilight 6:28 AM CET 6:10 PM CET
Astronomical Twilight 5:55 AM CET 6:44 PM CET
Moon 6:38 PM CET (1/17) 7:50 AM CET (1/17)
Length of Visible Light 10h 33m
Length of Day
9h 32m
Full, 99% of the Moon is Illuminated
Jan 17
Full
Jan 24
Last Quarter
Jan 30
New
Feb 6
First Quarter
Feb 15
Full

Hourly Weather History & Observations

Time (CET) Temp. Dew Point Humidity Pressure Visibility Wind Dir Wind Speed Gust Speed Precip Events Conditions
12:15 AM 51.8 °F 46.4 °F 82% 30.01 in 6.2 mi SSE 11.5 mph - N/A   Scattered Clouds
12:45 AM 51.8 °F 46.4 °F 82% 30.01 in 6.2 mi SSE 13.8 mph - N/A   Mostly Cloudy
1:00 AM 52 °F 46 °F 75% 30.03 in 6 mi SSE 13.8 mph - -   Mostly Cloudy
1:15 AM 51.8 °F 46.4 °F 82% 30.01 in 6.2 mi SSE 13.8 mph - N/A   Mostly Cloudy
1:45 AM 51.8 °F 46.4 °F 82% 30.01 in 6.2 mi SSE 13.8 mph - N/A   Mostly Cloudy
2:15 AM 51.8 °F 46.4 °F 82% 30.01 in 6.2 mi SSE 13.8 mph - N/A   Mostly Cloudy
2:45 AM 51.8 °F 48.2 °F 88% 29.98 in 6.2 mi SSE 15.0 mph - N/A   Mostly Cloudy
3:15 AM 51.8 °F 48.2 °F 88% 29.98 in 6.2 mi SE 16.1 mph - N/A   Mostly Cloudy
3:45 AM 53.6 °F 50.0 °F 88% 29.98 in 6.2 mi SSE 18.4 mph - N/A   Mostly Cloudy
4:00 AM 54 °F 49 °F 79% 30.00 in 6 mi SSE 18.4 mph - -   Mostly Cloudy
4:15 AM 53.6 °F 50.0 °F 88% 29.98 in 6.2 mi SSE 18.4 mph - N/A   Mostly Cloudy
4:45 AM 53.6 °F 46.4 °F 77% 29.98 in 6.2 mi SSE 16.1 mph - N/A   Mostly Cloudy
5:15 AM 53.6 °F 48.2 °F 82% 29.98 in 6.2 mi SSE 15.0 mph - N/A   Mostly Cloudy
5:45 AM 51.8 °F 48.2 °F 88% 29.98 in 6.2 mi SSE 12.7 mph 25.3 mph N/A   Mostly Cloudy
6:15 AM 53.6 °F 48.2 °F 82% 29.95 in 6.2 mi SE 15.0 mph 27.6 mph N/A   Scattered Clouds
6:45 AM 53.6 °F 50.0 °F 88% 29.95 in 6.2 mi SSE 16.1 mph - N/A   Scattered Clouds
7:00 AM 53 °F 49 °F 84% 29.97 in 6 mi SSE 16.1 mph - -   Partly Cloudy
7:15 AM 51.8 °F 48.2 °F 88% 29.95 in 6.2 mi SSE 16.1 mph - N/A   Scattered Clouds
7:45 AM 53.6 °F 50.0 °F 88% 29.95 in 6.2 mi SE 18.4 mph - N/A   Mostly Cloudy
8:15 AM 53.6 °F 50.0 °F 88% 29.95 in 6.2 mi SSE 15.0 mph - N/A   Mostly Cloudy
8:45 AM 53.6 °F 50.0 °F 88% 29.95 in 6.2 mi SSE 19.6 mph 31.1 mph N/A   Mostly Cloudy
9:15 AM 53.6 °F 50.0 °F 88% 29.95 in 6.2 mi SSE 19.6 mph - N/A   Mostly Cloudy
9:45 AM 55.4 °F 50.0 °F 82% 29.95 in 6.2 mi SSE 19.6 mph - N/A   Mostly Cloudy
10:00 AM 55 °F 50 °F 76% 29.96 in 6 mi SSE 19.6 mph - -   Overcast
10:15 AM 55.4 °F 50.0 °F 82% 29.95 in 6.2 mi SSE 20.7 mph - N/A   Mostly Cloudy
10:45 AM 55.4 °F 50.0 °F 82% 29.95 in 6.2 mi SSE 21.9 mph - N/A   Mostly Cloudy
11:15 AM 55.4 °F 50.0 °F 82% 29.95 in 6.2 mi SSE 19.6 mph - N/A   Mostly Cloudy
11:45 AM 55.4 °F 50.0 °F 82% 29.95 in 6.2 mi SSE 17.3 mph - N/A   Mostly Cloudy
12:15 PM 55.4 °F 51.8 °F 88% 29.92 in 5.0 mi SSE 20.7 mph - N/A Rain Light Rain
12:45 PM 55.4 °F 51.8 °F 88% 29.92 in 3.7 mi SSE 20.7 mph - N/A Rain Light Rain
1:00 PM 56 °F 52 °F 83% 29.93 in 4 mi SSE 20.7 mph - - Rain Light Rain
1:15 PM 55.4 °F 51.8 °F 88% 29.92 in 3.7 mi SSE 20.7 mph - N/A Rain Light Rain
1:45 PM 55.4 °F 51.8 °F 88% 29.89 in 5.0 mi SSE 20.7 mph - N/A Rain Light Rain
2:15 PM 55.4 °F 53.6 °F 94% 29.89 in 5.0 mi SSE 19.6 mph - N/A   Mostly Cloudy
2:45 PM 55.4 °F 51.8 °F 88% 29.89 in 5.0 mi SSE 21.9 mph - N/A   Mostly Cloudy
3:15 PM 55.4 °F 51.8 °F 88% 29.89 in 5.0 mi SE 19.6 mph - N/A Rain Light Rain
3:45 PM 55.4 °F 51.8 °F 88% 29.89 in 3.7 mi SSE 18.4 mph - N/A Rain Light Rain
4:00 PM 55 °F 53 °F 89% 29.91 in 4 mi SSE 18.4 mph - - Rain Light Rain
4:15 PM 55.4 °F 51.8 °F 88% 29.89 in 3.7 mi SSE 18.4 mph - N/A Rain Light Rain
4:45 PM 55.4 °F 53.6 °F 94% 29.89 in 3.7 mi SSE 18.4 mph 29.9 mph N/A Rain Light Rain
5:15 PM 55.4 °F 53.6 °F 94% 29.89 in 5.0 mi South 18.4 mph - N/A   Scattered Clouds
5:45 PM 55.4 °F 53.6 °F 94% 29.89 in 5.0 mi SSE 20.7 mph - N/A   Scattered Clouds
6:15 PM 55.4 °F 53.6 °F 94% 29.89 in 5.0 mi SSE 18.4 mph 29.9 mph N/A   Scattered Clouds
6:45 PM 55.4 °F 51.8 °F 88% 29.89 in 5.0 mi SSE 18.4 mph - N/A   Scattered Clouds
7:00 PM 55 °F 52 °F 88% 29.90 in 5 mi SSE 18.4 mph - -   Mist
7:15 PM 55.4 °F 51.8 °F 88% 29.89 in 5.0 mi SSE 18.4 mph - N/A   Scattered Clouds
7:45 PM 55.4 °F 51.8 °F 88% 29.89 in 5.0 mi SSE 18.4 mph - N/A   Scattered Clouds
8:15 PM 55.4 °F 51.8 °F 88% 29.89 in 6.2 mi SSE 19.6 mph 31.1 mph N/A   Scattered Clouds
8:45 PM 55.4 °F 53.6 °F 94% 29.89 in 5.0 mi SSE 20.7 mph - N/A   Scattered Clouds
9:15 PM 55.4 °F 53.6 °F 94% 29.89 in 5.0 mi South 17.3 mph - N/A   Scattered Clouds
9:45 PM 55.4 °F 51.8 °F 88% 29.89 in 5.0 mi South 18.4 mph 29.9 mph N/A   Scattered Clouds
10:00 PM 56 °F 53 °F 85% 29.92 in 5 mi South 18.4 mph - -   Mist
10:15 PM 55.4 °F 51.8 °F 88% 29.89 in 5.0 mi SSE 16.1 mph - N/A   Scattered Clouds
10:45 PM 55.4 °F 51.8 °F 88% 29.89 in 5.6 mi South 16.1 mph - N/A   Scattered Clouds
11:15 PM 55.4 °F 51.8 °F 88% 29.89 in 5.0 mi SSE 15.0 mph - N/A   Scattered Clouds
11:45 PM 55.4 °F 51.8 °F 88% 29.92 in 5.0 mi SSE 16.1 mph - N/A   Scattered Clouds